Flag for United Arab Emirates Weather past 2 weeks in Ras al-Khaimah, Ras al-Khaimah, United Arab Emirates

Now
100 °F

Sunny.


Feels Like: 104 °F
Forecast: 80 / 104 °F
Wind: 10 mph from Southwest

Location: Ras Al Khaimah International Airport

Current Time: Sep 17, 2014 at 11:52:38 AM

Latest Report: Sep 17, 2014 at 11:00 AM


Visibility: 10 mi

Pressure: 29.65 "Hg

Humidity: 31%

Dew point: 64 °F

Location of Ras al-KhaimahLocation

Historic Weather in Ras al-Khaimah — Graph

°F

Ras al-Khaimah temperature yesterday

Maximum temperature yesterday: 102 °F (at 1:00 PM)
Minimum temperature yesterday: 82 °F (at 5:00 AM)
Average temperature yesterday: 95 °F

Past Weeks' High & Low Weather Summary

 TemperatureHumidityPressure
High111 °F (Sep 3, 2:00 PM)89% (Sep 11, 4:00 AM)29.71 "Hg (Sep 11, 4:00 AM)
Low75 °F (Sep 6, 6:00 AM)8% (Sep 4, 10:00 AM)29.47 "Hg (Sep 2, 3:00 PM)
Average93 °F49%29.59 "Hg
* Reported Sep 2 10:00 AM — Sep 17 10:00 AM, Ras al-Khaimah, Weather by CustomWeather, © 2014

Note: Actual official high and low records may vary slightly from our data, if they occured in-between our weather recording intervals... More about our weather records

Advertising

Ras al-Khaimah weather history for previous 24 hours

 ConditionsComfort  
Time TempWeatherWind HumidityBarometerVisibility
10:00 AM
Sep 17
99 °FSunny.12 mph33%29.68 "Hg10 mi
9:00 AM97 °FSunny.10 mph39%29.68 "Hg10 mi
8:00 AM93 °FSunny.9 mph49%29.68 "Hg10 mi
7:00 AM88 °FSunny.6 mph62%29.65 "Hg10 mi
6:00 AM86 °FClear.3 mph66%29.62 "Hg10 mi
5:00 AM84 °FClear.7 mph66%29.62 "Hg10 mi
4:00 AM84 °FClear.7 mph58%29.59 "Hg10 mi
3:00 AM86 °FClear.7 mph62%29.59 "Hg4 mi
2:00 AM86 °FHaze.3 mph52%29.59 "Hg2 mi
1:00 AM86 °FHaze.2 mph52%29.59 "Hg2 mi
12:00 AM88 °FHaze.2 mph49%29.62 "Hg2 mi
11:00 PM
Sep 16
90 °FHaze.2 mph46%29.62 "Hg2 mi
10:00 PM91 °FClear.3 mph46%29.62 "Hg10 mi
9:00 PM95 °FClear.5 mph41%29.62 "Hg10 mi
8:00 PM97 °FClear.8 mph34%29.59 "Hg4 mi
7:00 PM97 °FLow level haze.10 mph32%29.59 "Hg1 mi
6:00 PM100 °FSunny.13 mph35%29.59 "Hg10 mi
5:00 PM100 °FSunny.9 mph33%29.56 "Hg10 mi
4:00 PM100 °FPassing clouds.10 mph40%29.56 "HgN/A
3:00 PM102 °FPassing clouds.9 mph37%29.59 "HgN/A
2:00 PM102 °FPassing clouds.8 mph35%29.59 "HgN/A
1:00 PM102 °FPassing clouds.13 mph35%29.62 "HgN/A
12:00 PM100 °FSunny.15 mph35%29.65 "Hg10 mi
11:00 AM99 °FSunny.15 mph39%29.65 "Hg10 mi
Weather by CustomWeather, © 2014

See weather overviewHow to use our weather pages